This is the latest recevied weather packets stored in our database for station/object DL3TR-13. If no packets are shown the sender has not sent any weather packets the latest 10 day(s).
| Time | Temp. | Humidity | Pressure | Rain* | Wind** | Luminosity | Snow |
|---|---|---|---|---|---|---|---|
| 1777654990 | 20° C | 29% | 1022.1 hPa | 0 mm | - | 35 W/m² | - |
| 1777654390 | 20° C | 29% | 1022 hPa | 0 mm | - | 37 W/m² | - |
| 1777653790 | 20° C | 29% | 1022 hPa | 0 mm | - | 39 W/m² | - |
| 1777653190 | 20.56° C | 29% | 1022 hPa | 0 mm | - | 207 W/m² | - |
| 1777652590 | 20.56° C | 28% | 1022.2 hPa | 0 mm | - | 316 W/m² | - |
| 1777651990 | 21.11° C | 29% | 1022.4 hPa | 0 mm | - | 345 W/m² | - |
| 1777651390 | 21.11° C | 27% | 1022.5 hPa | 0 mm | - | 373 W/m² | - |
| 1777650790 | 21.11° C | 28% | 1022.4 hPa | 0 mm | - | 401 W/m² | - |
| 1777650190 | 21.11° C | 27% | 1022.4 hPa | 0 mm | - | 427 W/m² | - |
| 1777649590 | 21.67° C | 29% | 1022.5 hPa | 0 mm | - | 455 W/m² | - |
| 1777648990 | 21.67° C | 27% | 1022.6 hPa | 0 mm | - | 483 W/m² | - |
| 1777648390 | 21.67° C | 27% | 1022.6 hPa | 0 mm | - | 506 W/m² | - |
| 1777647790 | 21.67° C | 26% | 1022.5 hPa | 0 mm | - | 533 W/m² | - |
| 1777647190 | 21.67° C | 26% | 1022.4 hPa | 0 mm | - | 559 W/m² | - |
| 1777646590 | 21.67° C | 28% | 1022.5 hPa | 0 mm | - | 582 W/m² | - |
| 1777645991 | 21.67° C | 27% | 1022.6 hPa | 0 mm | - | 603 W/m² | - |
| 1777645390 | 21.67° C | 27% | 1022.5 hPa | 0 mm | - | 626 W/m² | - |
| 1777644790 | 21.67° C | 28% | 1022.8 hPa | 0 mm | - | 647 W/m² | - |
| 1777644191 | 21.67° C | 27% | 1022.9 hPa | 0 mm | - | 664 W/m² | - |
| 1777643590 | 21.67° C | 27% | 1022.9 hPa | 0 mm | - | 686 W/m² | - |
| 1777642990 | 21.67° C | 28% | 1023.1 hPa | 0 mm | - | 701 W/m² | - |
| 1777642390 | 21.67° C | 27% | 1023.1 hPa | 0 mm | - | 717 W/m² | - |
| 1777641790 | 21.67° C | 28% | 1023.2 hPa | 0 mm | - | 735 W/m² | - |
| 1777641190 | 21.11° C | 28% | 1023.3 hPa | 0 mm | - | 749 W/m² | - |
| 1777640590 | 21.11° C | 28% | 1023.5 hPa | 0 mm | - | 765 W/m² | - |
* Rain latest hour (hover to see other rain measurements)
** Current wind speed in m/s (hover to see current wind gust speed)